Location: Dehesa de la Cepeda
(40.6574°N, 4.3013°W)
Time: 21:15:13
(UTC+00:00)

Vanguard 2 Rocket - Pass Details

Date: 07 August 2021
Orbit: 556 x 3324 km, 32.9° (Epoch: 19 September)

Event Time Altitude Azimuth Distance (km) Brightness Sun altitude
Rises 06:27:34 0° 245° (WSW) 3,695 9.4 11.4°
Reaches altitude 10° 06:30:55 10° 235° (SW) 2,402 8.6 12.0°
Maximum altitude 06:35:25 29° 176° (S) 1,182 7.6 12.9°
Drops below altitude 10° 06:38:58 10° 115° (ESE) 1,864 9.6 13.5°
Sets 06:41:14 0° 102° (ESE) 2,721 10.7 13.9°
